NOAA 16 DEB, 41653

Orbit data source: Space-Track

NOAA 16 DEB, 41653 is space debris in SSO originally from a launch on Thu, 21 Sep 2000 UTC launched from the Air Force Western Test Range (AFWTR). Debris objects in space refer to the collection of defunct objects orbiting the Earth. Examples of debris include non-operational satellites, rocket bodies, and fragments generated from explosions, collisions, or faulty payload assembly.

Loading next visibility...
Identifier
41653, 2000-055NS
Orbit
SSO
Country
Flag of USUS
Related business
Manufacturer
Unknown
Mission
Spacecraft
Bus & Motor
Unknown
Mass
Unknown
Launch date (UTC)
2000-09-21 (25 years ago)
Launch vehicle
Unknown
Launch site
Air Force Western Test Range (AFWTR)
Object type
Payload
Rocket body
Debris
Shape & HBR
Unknown shape, 0.1 m
Radar Cross Section
Small (<0.1 m²)

Expand to show TLE details & history
Last TLE update: 20 hours ago

TLE from 20 hours ago
0 NOAA 16 DEB
1 41653U 00055NS  25286.78231870  .00010962  00000-0  36020-2 0  9999
2 41653  98.8606  48.9383 0006476 226.3457 133.7193 14.38431849491753
Epoch: 2025-10-13T18:46Z
TLE epoch observation values (Epoch: 2025-10-13T18:46:32.335Z)
Latitude
-0.00002°
Longitude
104.72341°
Altitude
769.818 km
Speed
7.468 km/s
True Right ascension
03h 15m 45s
True Declination
0° 00' 00"
Sunlit
Object was in full shadow at epoch
Visualization orbit readout
Latitude
Unknown
Longitude
Unknown
Altitude
Unknown
Speed
Unknown
Apparent Right ascension
Unknown
Apparent Declination
Unknown
Sunlit
N/A
Visualization observer readout
Local Sidereal Time
09:33:23
Azimuth
Unknown
Elevation
Unknown
Doppler factor
Unknown
Orbital elements
Apogee altitude
765.449 km
Perigee altitude
756.202 km
Semi-major axis
7,138.963 km
Eccentricity
0.00065
Inclination
98.8606°
RAAN
48.9383°
Arg. of periapsis
226.3457°
True anomaly
133.7729°
Mean anomaly
133.7193°
Eccentric anomaly
133.7461°
Mean motion
3.59824 °/min
Orbital period
100.05 mins
BSTAR
0.003602
Loading maneuver chart data...
Computing Atmospheric mass density...
Loading historical data...
Loading historical data...
Loading historical data...
Loading historical data...
Loading historical data...
Loading historical data...
Loading historical data...

Documentation

Showing up to 5 results
|